This demonstration page uses our WeatherBlox Daily Observations layout. Learn more.

Left ArrowRight Arrow

39.51506, -84.39828

Hourly Observations for September 9, 2016

Temp ( °F °C ) Dew Point ( °F °C ) Humidity (%) Winds ( mph kmh ) Pressure ( in mb ) Visibility ( mi km ) Precip ( " mm )
12:15 am 00:15 Cloudy with Rain 74 23.6 69 20.6 83 83 SSW 3 6 29.97 1015 5 8 N/A
12:35 am 00:35 Cloudy with Rain 74 23.6 69 20.6 83 83 S 3 6 29.97 1015 5 8 N/A
12:55 am 00:55 Cloudy with Rain 74 23.6 69 20.8 84 84 N N/A 29.97 1015 7 11 N/A
1:15 am 01:15 Cloudy with Light Rain 74 23.6 69 20.7 84 84 N N/A 29.94 1014 7 11 N/A
1:35 am 01:35 Cloudy with Rain 74 23.6 69 20.7 84 84 N N/A 29.94 1014 5 8 N/A
1:55 am 01:55 Cloudy with Rain 74 23.6 69 20.8 84 84 N N/A 29.94 1014 10 16 N/A
2:15 am 02:15 Mostly Cloudy with Light Rain 74 23.6 70 21 85 85 N N/A 29.94 1014 7 11 N/A
2:35 am 02:35 Partly Cloudy 74 23.6 70 21 85 85 N N/A 29.94 1014 10 16 N/A
2:55 am 02:55 Mostly Cloudy 74 23.6 70 21 85 85 SSW 3 6 29.94 1014 10 16 N/A
3:15 am 03:15 Cloudy with Light Rain 74 23.6 70 21 85 85 SSW 7 11 29.94 1014 10 16 N/A
3:35 am 03:35 Cloudy with Light Rain 74 23.6 70 20.9 85 85 SSW 5 7 29.94 1014 10 16 N/A
3:55 am 03:55 Cloudy with Light Rain 74 23.6 70 21 85 85 S 3 6 29.94 1014 10 16 N/A
4:15 am 04:15 Cloudy with Light Rain 74 23.6 70 21 85 85 N N/A 29.94 1014 10 16 N/A
4:35 am 04:35 Cloudy with Drizzle 74 23.6 70 21 85 85 N N/A 29.94 1014 10 16 N/A
4:55 am 04:55 Cloudy with Light Rain 74 23.6 70 21 85 85 N N/A 29.97 1015 7 11 N/A
5:15 am 05:15 Cloudy with Rain 74 23.6 70 21 85 85 N N/A 29.94 1014 10 16 N/A
5:35 am 05:35 Cloudy 74 23.6 70 21 85 85 N N/A 29.94 1014 10 16 N/A
5:55 am 05:55 Cloudy 74 23.6 70 21 85 85 N N/A 29.97 1015 10 16 N/A
6:15 am 06:15 Cloudy 74 23.6 70 21 85 85 N N/A 29.97 1015 10 16 N/A
6:35 am 06:35 Cloudy 74 23.6 70 21 85 85 N N/A 29.97 1015 10 16 N/A
6:55 am 06:55 Cloudy 74 23.6 70 21 85 85 N N/A 29.97 1015 10 16 N/A
7:15 am 07:15 Cloudy 74 23.6 70 21 85 85 N N/A 29.97 1015 7 11 N/A
7:35 am 07:35 Cloudy 74 23.6 70 21 85 85 N N/A 29.97 1015 7 11 N/A
7:55 am 07:55 Cloudy with Haze 74 23.6 70 21 85 85 N N/A 29.97 1015 5 8 N/A
8:15 am 08:15 Cloudy with Haze 74 23.6 70 21 85 85 N N/A 29.97 1015 5 8 N/A
8:35 am 08:35 Cloudy 74 23.6 70 20.9 85 85 N N/A 29.97 1015 10 16 N/A
8:55 am 08:55 Cloudy 74 23.6 69 20.5 83 83 SW 3 6 29.97 1015 10 16 N/A
9:15 am 09:15 Cloudy 74 23.6 68 20.2 81 81 W 3 6 30.00 1016 10 16 N/A
9:35 am 09:35 Cloudy 75 23.7 68 20.2 81 81 N N/A 30.00 1016 10 16 N/A
9:55 am 09:55 Cloudy 77 24.9 70 21 79 79 N N/A 30.00 1016 10 16 N/A
10:15 am 10:15 Cloudy with Rain 77 25.1 70 21.2 79 79 N N/A 30.00 1016 7 11 N/A
10:35 am 10:35 Cloudy 77 25.1 71 21.4 80 80 N N/A 30.00 1016 10 16 N/A
10:55 am 10:55 Cloudy 77 25.1 70 21.1 79 79 SW 5 7 30.00 1016 10 16 N/A
11:15 am 11:15 Cloudy 77 25.1 70 21 78 78 N N/A 30.00 1016 7 11 N/A
11:35 am 11:35 Mostly Cloudy 80 26.5 70 21.1 72 72 N N/A 30.00 1016 10 16 N/A
11:55 am 11:55 Mostly Cloudy 80 26.5 70 20.9 71 71 SSW 3 6 30.00 1016 10 16 N/A
12:15 pm 12:15 Mostly Cloudy 80 26.5 68 20.2 68 68 SSW 3 6 30.00 1016 10 16 N/A
12:35 pm 12:35 Partly Cloudy 80 26.7 69 20.4 68 68 SSW 5 7 29.97 1015 10 16 N/A
12:55 pm 12:55 Sunny 81 27.2 69 20.3 66 66 SW 5 7 29.97 1015 10 16 N/A
1:15 pm 13:15 Partly Cloudy 81 27.1 68 20.2 66 66 WSW 5 7 29.97 1015 10 16 N/A
1:35 pm 13:35 Partly Cloudy N/A N/A N/A undefined N/A N/A 10 16 N/A
1:55 pm 13:55 undefined N/A N/A N/A undefined N/A N/A N/A N/A
2:15 pm 14:15 undefined N/A N/A N/A undefined N/A N/A N/A N/A
2:35 pm 14:35 undefined N/A N/A N/A undefined N/A N/A N/A N/A
2:55 pm 14:55 undefined N/A N/A N/A undefined N/A N/A N/A N/A
3:15 pm 15:15 undefined N/A N/A N/A undefined N/A N/A N/A N/A
3:35 pm 15:35 undefined N/A N/A N/A undefined N/A N/A N/A N/A
3:55 pm 15:55 undefined 85 29.3 66 18.8 53 53 WSW 8 13 29.91 1013 10 16 N/A
4:15 pm 16:15 Sunny 87 30.7 66 19 50 50 SSW 6 9 29.91 1013 10 16 N/A
4:35 pm 16:35 Sunny 87 30.7 67 19.7 52 52 W 7 11 29.91 1013 10 16 N/A
4:55 pm 16:55 Sunny 84 29 64 17.8 51 51 SW 6 9 29.91 1013 10 16 N/A
5:15 pm 17:15 Partly Cloudy 84 28.8 65 18.5 54 54 WSW 3 6 29.91 1013 10 16 N/A
5:35 pm 17:35 Partly Cloudy 87 30.7 67 19.5 51 51 WSW 5 7 29.91 1013 10 16 N/A
5:55 pm 17:55 Partly Cloudy 83 28.6 66 19 56 56 WSW 3 6 29.91 1013 10 16 N/A
6:15 pm 18:15 Partly Cloudy 83 28.6 66 18.8 55 55 N N/A 29.91 1013 10 16 N/A
6:35 pm 18:35 Sunny 83 28.3 68 20 61 61 N N/A 29.91 1013 10 16 N/A
6:55 pm 18:55 Sunny 83 28.4 68 20 60 60 N N/A 29.91 1013 10 16 N/A
7:15 pm 19:15 Sunny 83 28.4 67 19.6 59 59 N N/A 29.91 1013 10 16 N/A
7:35 pm 19:35 Sunny 82 28 69 20.4 63 63 N N/A 29.91 1013 10 16 N/A
7:55 pm 19:55 Sunny 80 26.5 72 22.1 77 77 N N/A 29.94 1014 10 16 N/A
8:15 pm 20:15 Clear 78 25.5 71 21.8 80 80 N N/A 29.94 1014 10 16 N/A
8:35 pm 20:35 Partly Cloudy 77 25.1 71 21.6 81 81 N N/A 29.97 1015 10 16 N/A
8:55 pm 20:55 Mostly Cloudy 77 25.1 71 21.6 81 81 N N/A 29.97 1015 10 16 N/A
9:15 pm 21:15 Partly Cloudy 77 25.1 71 21.7 81 81 N N/A 29.97 1015 10 16 N/A
9:35 pm 21:35 Clear 77 25.1 72 22 83 83 N N/A 29.94 1014 10 16 N/A
9:55 pm 21:55 Clear 75 23.7 69 20.6 83 83 N N/A 29.97 1015 10 16 N/A
10:15 pm 22:15 Clear 74 23.6 69 20.6 83 83 N N/A 29.94 1014 10 16 N/A
10:35 pm 22:35 Partly Cloudy 74 23.6 69 20.5 83 83 N N/A 29.94 1014 10 16 N/A
10:55 pm 22:55 Clear 74 23.6 69 20.6 83 83 N N/A 29.94 1014 10 16 N/A
11:15 pm 23:15 Clear 75 23.9 69 20.4 81 81 N N/A 29.94 1014 10 16 N/A
11:35 pm 23:35 Partly Cloudy 78 25.8 70 21 75 75 SSE 5 7 29.94 1014 10 16 N/A
11:55 pm 23:55 Partly Cloudy 80 26.5 69 20.8 71 71 SSE 7 11 29.91 1013 10 16 N/A

Powered by AerisWeather